Weather History for Plattsburgh, NY

Change the Weather History Date:

Thursday, September 26, 2013

  Actual Average Record
Temperature  
Mean Temperature 51 °F 55 °F  
Max Temperature 62 °F 66 °F 84 °F (2007)
Min Temperature 39 °F 44 °F 32 °F (1978)
Degree Days  
Heating Degree Days 14 10  
Month to date heating degree days 200 149  
Since 1 July heating degree days 245 190  
Cooling Degree Days 0 0  
Month to date cooling degree days 40 19  
Year to date cooling degree days 423 341  
Growing Degree Days 1 (Base 50)    
Moisture  
Dew Point 45 °F    
Average Humidity 80    
Maximum Humidity 100    
Minimum Humidity 60    
Precipitation  
Precipitation 0.00 in - 1.00 in (1977)
Month to date precipitation 2.91  
Year to date precipitation 26.83  
Sea Level Pressure  
Sea Level Pressure 30.11 in    
Wind  
Wind Speed 2 mph (NNE)    
Max Wind Speed 12 mph    
Max Gust Speed 16 mph    
Visibility 10 miles    
Events      
T = Trace of Precipitation, MM = Missing Value Source: NWS Daily Summary

Daily Weather History Graph

Daily Weather History Graph

Search for Another Location

Airport:

Trip Planner

Search our weather history database for the weather conditions in past years. The results will help you decide how hot, cold, wet, or windy it might be!

Date:

Astronomy

Sep. 26, 2013 Rise Set
Actual Time 6:46 AM EDT 6:43 PM EDT
Civil Twilight 6:16 AM EDT 7:12 PM EDT
Nautical Twilight 5:42 AM EDT 7:46 PM EDT
Astronomical Twilight 5:08 AM EDT 8:20 PM EDT
Moon 11:27 PM EDT (9/26) 1:48 PM EDT (9/26)
Length of Visible Light 12h 55m
Length of Day
11h 57m
Waning Gibbous, 55% of the Moon is Illuminated
Sep 26
Waning Gibbous
Sep 26
Last Quarter
Oct 4
New
Oct 11
First Quarter
Oct 18
Full

Hourly Weather History & Observations

Time (EDT) Temp. Windchill Dew Point Humidity Pressure Visibility Wind Dir Wind Speed Gust Speed Precip Events Conditions
12:53 AM 46.0 °F - 45.0 °F 96% 30.05 in 10.0 mi Calm Calm - N/A   Clear
1:53 AM 45.0 °F - 44.1 °F 97% 30.05 in 10.0 mi Calm Calm - N/A   Clear
2:53 AM 44.1 °F - 43.0 °F 96% 30.05 in 10.0 mi Calm Calm - N/A   Clear
3:53 AM 42.1 °F - 41.0 °F 96% 30.05 in 8.0 mi Calm Calm - N/A   Clear
4:39 AM 41.0 °F - 41.0 °F 100% 30.06 in 8.0 mi Calm Calm - N/A   Scattered Clouds
4:48 AM 41.0 °F - 41.0 °F 100% 30.06 in 9.0 mi Calm Calm - N/A   Mostly Cloudy
4:53 AM 41.0 °F - 41.0 °F 100% 30.07 in 10.0 mi Calm Calm - N/A   Mostly Cloudy
5:41 AM 42.8 °F - 42.8 °F 100% 30.07 in 10.0 mi Calm Calm - N/A   Scattered Clouds
5:53 AM 41.0 °F - 41.0 °F 100% 30.08 in 10.0 mi Calm Calm - N/A   Partly Cloudy
6:53 AM 41.0 °F - 39.9 °F 96% 30.09 in 10.0 mi Calm Calm - N/A   Partly Cloudy
7:36 AM 41.0 °F - 39.2 °F 93% 30.10 in 10.0 mi Calm Calm - N/A   Mostly Cloudy
7:53 AM 44.1 °F 40.8 °F 42.1 °F 93% 30.11 in 10.0 mi WSW 5.8 mph - N/A   Scattered Clouds
8:53 AM 52.0 °F - 46.0 °F 80% 30.12 in 10.0 mi Calm Calm - N/A   Clear
9:53 AM 54.0 °F - 46.9 °F 77% 30.13 in 10.0 mi Calm Calm - N/A   Clear
10:53 AM - - - N/A% 30.13 in - North - - N/A   Unknown
11:53 AM - - - N/A% 30.12 in - North - - N/A   Unknown
12:53 PM - - - N/A% 30.13 in - North - - N/A   Unknown
2:53 PM 61.0 °F - 46.0 °F 58% 30.12 in 10.0 mi Variable 5.8 mph - N/A   Mostly Cloudy
3:53 PM 61.0 °F - 46.9 °F 60% 30.12 in 10.0 mi NE 6.9 mph - N/A   Mostly Cloudy
4:53 PM 60.1 °F - 46.9 °F 62% 30.14 in 10.0 mi NNE 8.1 mph - N/A   Mostly Cloudy
5:53 PM 59.0 °F - 48.0 °F 67% 30.14 in 10.0 mi NNE 6.9 mph - N/A   Overcast
6:53 PM 57.9 °F - 46.9 °F 67% 30.15 in 10.0 mi NNE 4.6 mph - N/A   Overcast
7:53 PM 59.0 °F - 46.9 °F 64% 30.17 in 10.0 mi NNE 8.1 mph - N/A   Overcast
8:53 PM 57.9 °F - 48.0 °F 70% 30.17 in 10.0 mi NE 4.6 mph - N/A   Overcast
9:53 PM 57.0 °F - 50.0 °F 77% 30.18 in 10.0 mi Calm Calm - N/A   Overcast
10:53 PM 55.9 °F - 50.0 °F 80% 30.18 in 10.0 mi Calm Calm - N/A   Overcast
11:53 PM 55.0 °F - 50.0 °F 83% 30.18 in 10.0 mi Calm Calm - N/A   Overcast